Location: Home
(42.5358°N, 72.7383°W)
Time: 02:44:23
(UTC-04:00)

IRIDIUM 152 - Pass Details

Date: 06 July 2022
Orbit: 776 x 779 km, 86.4° (Epoch: 16 August)

Event Time Altitude Azimuth Distance (km) Brightness Sun altitude
Rises 02:28:58 0° 126° (SE) 3,253 ? -21.3°
Reaches altitude 10° 02:32:59 10° 95° (E) 2,333 ? -21.0°
Maximum altitude 02:34:43 12° 75° (ENE) 2,221 ? -20.9°
Drops below altitude 10° 02:36:27 10° 56° (NE) 2,338 ? -20.8°
Sets 02:40:29 0° 25° (NNE) 3,273 ? -20.5°
